Year,Month,Day,Hour,Minute,Value (Times are PST for temperature in C)
2015,07,21,00,00,17.20
2015,07,21,00,01,17.20
2015,07,21,00,02,17.20
2015,07,21,00,03,17.20
2015,07,21,00,04,17.20
2015,07,21,00,05,17.20
2015,07,21,00,06,17.20
2015,07,21,00,07,17.20
2015,07,21,00,08,17.10
2015,07,21,00,09,17.10
2015,07,21,00,10,17.10
2015,07,21,00,11,17.10
2015,07,21,00,12,17.10
2015,07,21,00,13,17.00
2015,07,21,00,14,17.00
2015,07,21,00,15,17.00
2015,07,21,00,16,17.00
2015,07,21,00,17,17.00
2015,07,21,00,18,17.00
2015,07,21,00,19,17.00
2015,07,21,00,20,17.00
2015,07,21,00,21,17.00
2015,07,21,00,22,17.00
2015,07,21,00,23,16.90
2015,07,21,00,24,16.90
2015,07,21,00,25,16.90
2015,07,21,00,26,16.90
2015,07,21,00,27,16.90
2015,07,21,00,28,16.90
2015,07,21,00,29,16.90
2015,07,21,00,30,16.90
2015,07,21,00,31,16.90
2015,07,21,00,32,16.80
2015,07,21,00,33,16.80
2015,07,21,00,34,16.80
2015,07,21,00,35,16.80
2015,07,21,00,36,16.80
2015,07,21,00,37,16.80
2015,07,21,00,38,16.80
2015,07,21,00,39,16.80
2015,07,21,00,40,16.80
2015,07,21,00,41,16.80
2015,07,21,00,42,16.80
2015,07,21,00,43,16.80
2015,07,21,00,44,16.80
2015,07,21,00,45,16.70
2015,07,21,00,46,16.70
2015,07,21,00,47,16.70
2015,07,21,00,48,16.70
2015,07,21,00,49,16.70
2015,07,21,00,50,16.70
2015,07,21,00,51,16.70
2015,07,21,00,52,16.70
2015,07,21,00,53,16.60
2015,07,21,00,54,16.60
2015,07,21,00,55,16.60
2015,07,21,00,56,16.60
2015,07,21,00,57,16.60
2015,07,21,00,58,16.60
2015,07,21,00,59,16.60
2015,07,21,01,00,16.60
2015,07,21,01,01,16.60
2015,07,21,01,02,16.50
2015,07,21,01,03,16.50
2015,07,21,01,04,16.50
2015,07,21,01,05,16.50
2015,07,21,01,06,16.50
2015,07,21,01,07,16.50
2015,07,21,01,08,16.40
2015,07,21,01,09,16.40
2015,07,21,01,10,16.40
2015,07,21,01,11,16.40
2015,07,21,01,12,16.40
2015,07,21,01,13,16.40
2015,07,21,01,14,16.40
2015,07,21,01,15,16.40
2015,07,21,01,16,16.40
2015,07,21,01,17,16.40
2015,07,21,01,18,16.40
2015,07,21,01,19,16.40
2015,07,21,01,20,16.30
2015,07,21,01,21,16.30
2015,07,21,01,22,16.30
2015,07,21,01,23,16.30
2015,07,21,01,24,16.30
2015,07,21,01,25,16.30
2015,07,21,01,26,16.30
2015,07,21,01,27,16.30
2015,07,21,01,28,16.30
2015,07,21,01,29,16.30
2015,07,21,01,30,16.30
2015,07,21,01,31,16.30
2015,07,21,01,32,16.30
2015,07,21,01,33,16.30
2015,07,21,01,34,16.30
2015,07,21,01,35,16.30
2015,07,21,01,36,16.30
2015,07,21,01,37,16.30
2015,07,21,01,38,16.30
2015,07,21,01,39,16.30
2015,07,21,01,40,16.30
2015,07,21,01,41,16.30
2015,07,21,01,42,16.30
2015,07,21,01,43,16.30
2015,07,21,01,44,16.30
2015,07,21,01,45,16.30
2015,07,21,01,46,16.30
2015,07,21,01,47,16.30
2015,07,21,01,48,16.30
2015,07,21,01,49,16.30
2015,07,21,01,50,16.30
2015,07,21,01,51,16.30
2015,07,21,01,52,16.30
2015,07,21,01,53,16.30
2015,07,21,01,54,16.30
2015,07,21,01,55,16.30
2015,07,21,01,56,16.30
2015,07,21,01,57,16.30
2015,07,21,01,58,16.30
2015,07,21,01,59,16.30
2015,07,21,02,00,16.20
2015,07,21,02,01,16.20
2015,07,21,02,02,16.20
2015,07,21,02,03,16.20
2015,07,21,02,04,16.20
2015,07,21,02,05,16.20
2015,07,21,02,06,16.20
2015,07,21,02,07,16.20
2015,07,21,02,08,16.20
2015,07,21,02,09,16.20
2015,07,21,02,10,16.20
2015,07,21,02,11,16.20
2015,07,21,02,12,16.20
2015,07,21,02,13,16.20
2015,07,21,02,14,16.20
2015,07,21,02,15,16.30
2015,07,21,02,16,16.20
2015,07,21,02,17,16.20
2015,07,21,02,18,16.20
2015,07,21,02,19,16.20
2015,07,21,02,20,16.20
2015,07,21,02,21,16.20
2015,07,21,02,22,16.20
2015,07,21,02,23,16.20
2015,07,21,02,24,16.30
2015,07,21,02,25,16.30
2015,07,21,02,26,16.30
2015,07,21,02,27,16.30
2015,07,21,02,28,16.30
2015,07,21,02,29,16.30
2015,07,21,02,30,16.30
2015,07,21,02,31,16.30
2015,07,21,02,32,16.30
2015,07,21,02,33,16.30
2015,07,21,02,34,16.30
2015,07,21,02,35,16.30
2015,07,21,02,36,16.30
2015,07,21,02,37,16.30
2015,07,21,02,38,16.30
2015,07,21,02,39,16.30
2015,07,21,02,40,16.30
2015,07,21,02,41,16.30
2015,07,21,02,42,16.30
2015,07,21,02,43,16.20
2015,07,21,02,44,16.20
2015,07,21,02,45,16.20
2015,07,21,02,46,16.20
2015,07,21,02,47,16.20
2015,07,21,02,48,16.20
2015,07,21,02,49,16.10
2015,07,21,02,50,16.10
2015,07,21,02,51,16.10
2015,07,21,02,52,16.10
2015,07,21,02,53,16.10
2015,07,21,02,54,16.10
2015,07,21,02,55,16.10
2015,07,21,02,56,16.10
2015,07,21,02,57,16.10
2015,07,21,02,58,16.10
2015,07,21,02,59,16.10
2015,07,21,03,00,16.10
2015,07,21,03,01,16.10
2015,07,21,03,02,16.10
2015,07,21,03,03,16.10
2015,07,21,03,04,16.10
2015,07,21,03,05,16.10
2015,07,21,03,06,16.10
2015,07,21,03,07,16.10
2015,07,21,03,08,16.10
2015,07,21,03,09,16.10
2015,07,21,03,10,16.00
2015,07,21,03,11,16.00
2015,07,21,03,12,16.00
2015,07,21,03,13,16.00
2015,07,21,03,14,16.00
2015,07,21,03,15,16.00
2015,07,21,03,16,16.00
2015,07,21,03,17,16.00
2015,07,21,03,18,16.00
2015,07,21,03,19,16.00
2015,07,21,03,20,16.00
2015,07,21,03,21,16.00
2015,07,21,03,22,16.00
2015,07,21,03,23,16.00
2015,07,21,03,24,16.00
2015,07,21,03,25,16.00
2015,07,21,03,26,16.00
2015,07,21,03,27,15.90
2015,07,21,03,28,15.90
2015,07,21,03,29,15.90
2015,07,21,03,30,15.90
2015,07,21,03,31,15.90
2015,07,21,03,32,15.90
2015,07,21,03,33,15.90
2015,07,21,03,34,15.90
2015,07,21,03,35,15.90
2015,07,21,03,36,15.90
2015,07,21,03,37,15.90
2015,07,21,03,38,15.90
2015,07,21,03,39,15.90
2015,07,21,03,40,15.90
2015,07,21,03,41,15.90
2015,07,21,03,42,15.90
2015,07,21,03,43,15.90
2015,07,21,03,44,15.90
2015,07,21,03,45,15.90
2015,07,21,03,46,15.90
2015,07,21,03,47,15.90
2015,07,21,03,48,15.90
2015,07,21,03,49,15.90
2015,07,21,03,50,15.90
2015,07,21,03,51,15.90
2015,07,21,03,52,15.90
2015,07,21,03,53,15.90
2015,07,21,03,54,15.90
2015,07,21,03,55,15.90
2015,07,21,03,56,15.90
2015,07,21,03,57,15.90
2015,07,21,03,58,15.90
2015,07,21,03,59,15.90
2015,07,21,04,00,15.90
2015,07,21,04,01,15.90
2015,07,21,04,02,15.90
2015,07,21,04,03,15.90
2015,07,21,04,04,16.00
2015,07,21,04,05,16.00
2015,07,21,04,06,16.00
2015,07,21,04,07,16.00
2015,07,21,04,08,16.00
2015,07,21,04,09,16.00
2015,07,21,04,10,16.00
2015,07,21,04,11,16.00
2015,07,21,04,12,16.10
2015,07,21,04,13,16.10
2015,07,21,04,14,16.10
2015,07,21,04,15,16.10
2015,07,21,04,16,16.10
2015,07,21,04,17,16.10
2015,07,21,04,18,16.10
2015,07,21,04,19,16.10
2015,07,21,04,20,16.10
2015,07,21,04,21,16.00
2015,07,21,04,22,16.00
2015,07,21,04,23,16.00
2015,07,21,04,24,16.00
2015,07,21,04,25,16.00
2015,07,21,04,26,16.00
2015,07,21,04,27,16.00
2015,07,21,04,28,16.00
2015,07,21,04,29,16.00
2015,07,21,04,30,16.00
2015,07,21,04,31,16.00
2015,07,21,04,32,16.00
2015,07,21,04,33,16.00
2015,07,21,04,34,16.00
2015,07,21,04,35,16.00
2015,07,21,04,36,16.00
2015,07,21,04,37,16.00
2015,07,21,04,38,16.00
2015,07,21,04,39,16.00
2015,07,21,04,40,16.00
2015,07,21,04,41,16.00
2015,07,21,04,42,16.00
2015,07,21,04,43,16.00
2015,07,21,04,44,16.10
2015,07,21,04,45,16.10
2015,07,21,04,46,16.10
2015,07,21,04,47,16.10
2015,07,21,04,48,16.10
2015,07,21,04,49,16.10
2015,07,21,04,50,16.10
2015,07,21,04,51,16.10
2015,07,21,04,52,16.10
2015,07,21,04,53,16.10
2015,07,21,04,54,16.10
2015,07,21,04,55,16.10
2015,07,21,04,56,16.10
2015,07,21,04,57,16.10
2015,07,21,04,58,16.10
2015,07,21,04,59,16.10
2015,07,21,05,00,16.10
2015,07,21,05,01,16.10
2015,07,21,05,02,16.10
2015,07,21,05,03,16.10
2015,07,21,05,04,16.10
2015,07,21,05,05,16.10
2015,07,21,05,06,16.10
2015,07,21,05,07,16.10
2015,07,21,05,08,16.10
2015,07,21,05,09,16.10
2015,07,21,05,10,16.10
2015,07,21,05,11,16.10
2015,07,21,05,12,16.10
2015,07,21,05,13,16.10
2015,07,21,05,14,16.10
2015,07,21,05,15,16.10
2015,07,21,05,16,16.10
2015,07,21,05,17,16.10
2015,07,21,05,18,16.10
2015,07,21,05,19,16.10
2015,07,21,05,20,16.10
2015,07,21,05,21,16.10
2015,07,21,05,22,16.10
2015,07,21,05,23,16.10
2015,07,21,05,24,16.10
2015,07,21,05,25,16.10
2015,07,21,05,26,16.10
2015,07,21,05,27,16.10
2015,07,21,05,28,16.10
2015,07,21,05,29,16.10
2015,07,21,05,30,16.10
2015,07,21,05,31,16.10
2015,07,21,05,32,16.20
2015,07,21,05,33,16.20
2015,07,21,05,34,16.20
2015,07,21,05,35,16.20
2015,07,21,05,36,16.20
2015,07,21,05,37,16.20
2015,07,21,05,38,16.20
2015,07,21,05,39,16.20
2015,07,21,05,40,16.20
2015,07,21,05,41,16.20
2015,07,21,05,42,16.20
2015,07,21,05,43,16.20
2015,07,21,05,44,16.20
2015,07,21,05,45,16.20
2015,07,21,05,46,16.20
2015,07,21,05,47,16.20
2015,07,21,05,48,16.20
2015,07,21,05,49,16.20
2015,07,21,05,50,16.20
2015,07,21,05,51,16.20
2015,07,21,05,52,16.20
2015,07,21,05,53,16.20
2015,07,21,05,54,16.20
2015,07,21,05,55,16.30
2015,07,21,05,56,16.30
2015,07,21,05,57,16.30
2015,07,21,05,58,16.20
2015,07,21,05,59,16.20
2015,07,21,06,00,16.30
2015,07,21,06,01,16.30
2015,07,21,06,02,16.20
2015,07,21,06,03,16.20
2015,07,21,06,04,16.20
2015,07,21,06,05,16.20
2015,07,21,06,06,16.20
2015,07,21,06,07,16.20
2015,07,21,06,08,16.20
2015,07,21,06,09,16.20
2015,07,21,06,10,16.20
2015,07,21,06,11,16.20
2015,07,21,06,12,16.20
2015,07,21,06,13,16.20
2015,07,21,06,14,16.20
2015,07,21,06,15,16.20
2015,07,21,06,16,16.20
2015,07,21,06,17,16.20
2015,07,21,06,18,16.20
2015,07,21,06,19,16.20
2015,07,21,06,20,16.10
2015,07,21,06,21,16.10
2015,07,21,06,22,16.10
2015,07,21,06,23,16.10
2015,07,21,06,24,16.10
2015,07,21,06,25,16.10
2015,07,21,06,26,16.10
2015,07,21,06,27,16.10
2015,07,21,06,28,16.10
2015,07,21,06,29,16.10
2015,07,21,06,30,16.10
2015,07,21,06,31,16.10
2015,07,21,06,32,16.10
2015,07,21,06,33,16.10
2015,07,21,06,34,16.10
2015,07,21,06,35,16.10
2015,07,21,06,36,16.10
2015,07,21,06,37,16.10
2015,07,21,06,38,16.10
2015,07,21,06,39,16.10
2015,07,21,06,40,16.10
2015,07,21,06,41,16.10
2015,07,21,06,42,16.10
2015,07,21,06,43,16.10
2015,07,21,06,44,16.10
2015,07,21,06,45,16.10
2015,07,21,06,46,16.10
2015,07,21,06,47,16.10
2015,07,21,06,48,16.10
2015,07,21,06,49,16.10
2015,07,21,06,50,16.10
2015,07,21,06,51,16.10
2015,07,21,06,52,16.20
2015,07,21,06,53,16.20
2015,07,21,06,54,16.20
2015,07,21,06,55,16.20
2015,07,21,06,56,16.20
2015,07,21,06,57,16.20
2015,07,21,06,58,16.20
2015,07,21,06,59,16.20
2015,07,21,07,00,16.20
2015,07,21,07,01,16.20
2015,07,21,07,02,16.30
2015,07,21,07,03,16.30
2015,07,21,07,04,16.30
2015,07,21,07,05,16.30
2015,07,21,07,06,16.40
2015,07,21,07,07,16.40
2015,07,21,07,08,16.40
2015,07,21,07,09,16.40
2015,07,21,07,10,16.40
2015,07,21,07,11,16.40
2015,07,21,07,12,16.40
2015,07,21,07,13,16.40
2015,07,21,07,14,16.40
2015,07,21,07,15,16.40
2015,07,21,07,16,16.40
2015,07,21,07,17,16.40
2015,07,21,07,18,16.40
2015,07,21,07,19,16.40
2015,07,21,07,20,16.40
2015,07,21,07,21,16.50
2015,07,21,07,22,16.50
2015,07,21,07,23,16.50
2015,07,21,07,24,16.50
2015,07,21,07,25,16.60
2015,07,21,07,26,16.60
2015,07,21,07,27,16.60
2015,07,21,07,28,16.60
2015,07,21,07,29,16.60
2015,07,21,07,30,16.60
2015,07,21,07,31,16.70
2015,07,21,07,32,16.70
2015,07,21,07,33,16.70
2015,07,21,07,34,16.70
2015,07,21,07,35,16.70
2015,07,21,07,36,16.80
2015,07,21,07,37,16.80
2015,07,21,07,38,16.80
2015,07,21,07,39,16.80
2015,07,21,07,40,16.80
2015,07,21,07,41,16.80
2015,07,21,07,42,16.80
2015,07,21,07,43,16.80
2015,07,21,07,44,16.80
2015,07,21,07,45,16.80
2015,07,21,07,46,16.80
2015,07,21,07,47,16.80
2015,07,21,07,48,16.80
2015,07,21,07,49,16.80
2015,07,21,07,50,16.80
2015,07,21,07,51,16.80
2015,07,21,07,52,16.80
2015,07,21,07,53,16.80
2015,07,21,07,54,16.80
2015,07,21,07,55,16.80
2015,07,21,07,56,16.80
2015,07,21,07,57,16.90
2015,07,21,07,58,16.90
2015,07,21,07,59,16.90
2015,07,21,08,00,16.90
2015,07,21,08,01,16.90
2015,07,21,08,02,16.90
2015,07,21,08,03,17.00
2015,07,21,08,04,17.00
2015,07,21,08,05,17.10
2015,07,21,08,06,17.10
2015,07,21,08,07,17.10
2015,07,21,08,08,17.20
2015,07,21,08,09,17.20
2015,07,21,08,10,17.20
2015,07,21,08,11,17.20
2015,07,21,08,12,17.20
2015,07,21,08,13,17.30
2015,07,21,08,14,17.30
2015,07,21,08,15,17.30
2015,07,21,08,16,17.30
2015,07,21,08,17,17.30
2015,07,21,08,18,17.20
2015,07,21,08,19,17.20
2015,07,21,08,20,17.30
2015,07,21,08,21,17.30
2015,07,21,08,22,17.30
2015,07,21,08,23,17.30
2015,07,21,08,24,17.30
2015,07,21,08,25,17.30
2015,07,21,08,26,17.30
2015,07,21,08,27,17.30
2015,07,21,08,28,17.30
2015,07,21,08,29,17.30
2015,07,21,08,30,17.30
2015,07,21,08,31,17.30
2015,07,21,08,32,17.20
2015,07,21,08,33,17.20
2015,07,21,08,34,17.20
2015,07,21,08,35,17.20
2015,07,21,08,36,17.20
2015,07,21,08,37,17.20
2015,07,21,08,38,17.20
2015,07,21,08,39,17.20
2015,07,21,08,40,17.30
2015,07,21,08,41,17.30
2015,07,21,08,42,17.30
2015,07,21,08,43,17.40
2015,07,21,08,44,17.40
2015,07,21,08,45,17.40
2015,07,21,08,46,17.30
2015,07,21,08,47,17.40
2015,07,21,08,48,17.40
2015,07,21,08,49,17.40
2015,07,21,08,50,17.40
2015,07,21,08,51,17.40
2015,07,21,08,52,17.40
2015,07,21,08,53,17.40
2015,07,21,08,54,17.40
2015,07,21,08,55,17.40
2015,07,21,08,56,17.40
2015,07,21,08,57,17.40
2015,07,21,08,58,17.40
2015,07,21,08,59,17.40
2015,07,21,09,00,17.40
2015,07,21,09,01,17.40
2015,07,21,09,02,17.40
2015,07,21,09,03,17.40
2015,07,21,09,04,17.40
2015,07,21,09,05,17.40
2015,07,21,09,06,17.40
2015,07,21,09,07,17.40
2015,07,21,09,08,17.40
2015,07,21,09,09,17.40
2015,07,21,09,10,17.40
2015,07,21,09,11,17.40
2015,07,21,09,12,17.40
2015,07,21,09,13,17.40
2015,07,21,09,14,17.40
2015,07,21,09,15,17.40
2015,07,21,09,16,17.50
2015,07,21,09,17,17.50
2015,07,21,09,18,17.50
2015,07,21,09,19,17.50
2015,07,21,09,20,17.50
2015,07,21,09,21,17.50
2015,07,21,09,22,17.50
2015,07,21,09,23,17.50
2015,07,21,09,24,17.50
2015,07,21,09,25,17.50
2015,07,21,09,26,17.50
2015,07,21,09,27,17.50
2015,07,21,09,28,17.50
2015,07,21,09,29,17.40
2015,07,21,09,30,17.40
2015,07,21,09,31,17.40
2015,07,21,09,32,17.40
2015,07,21,09,33,17.40
2015,07,21,09,34,17.50
2015,07,21,09,35,17.50
2015,07,21,09,36,17.50
2015,07,21,09,37,17.60
2015,07,21,09,38,17.60
2015,07,21,09,39,17.60
2015,07,21,09,40,17.60
2015,07,21,09,41,17.60
2015,07,21,09,42,17.60
2015,07,21,09,43,17.60
2015,07,21,09,44,17.60
2015,07,21,09,45,17.60
2015,07,21,09,46,17.70
2015,07,21,09,47,17.80
2015,07,21,09,48,17.80
2015,07,21,09,49,17.90
2015,07,21,09,50,17.90
2015,07,21,09,51,17.90
2015,07,21,09,52,17.90
2015,07,21,09,53,17.80
2015,07,21,09,54,17.90
2015,07,21,09,55,17.90
2015,07,21,09,56,17.90
2015,07,21,09,57,17.90
2015,07,21,09,58,17.90
2015,07,21,09,59,17.90
2015,07,21,10,00,17.90
2015,07,21,10,01,17.90
2015,07,21,10,02,17.90
2015,07,21,10,03,18.00
2015,07,21,10,04,18.00
2015,07,21,10,05,18.10
2015,07,21,10,06,18.10
2015,07,21,10,07,18.10
2015,07,21,10,08,18.10
2015,07,21,10,09,18.10
2015,07,21,10,10,18.10
2015,07,21,10,11,18.20
2015,07,21,10,12,18.10
2015,07,21,10,13,18.10
2015,07,21,10,14,18.10
2015,07,21,10,15,18.10
2015,07,21,10,16,18.20
2015,07,21,10,17,18.20
2015,07,21,10,18,18.20
2015,07,21,10,19,18.20
2015,07,21,10,20,18.20
2015,07,21,10,21,18.20
2015,07,21,10,22,18.20
2015,07,21,10,23,18.20
2015,07,21,10,24,18.20
2015,07,21,10,25,18.10
2015,07,21,10,26,18.20
2015,07,21,10,27,18.20
2015,07,21,10,28,18.20
2015,07,21,10,29,18.20
2015,07,21,10,30,18.30
2015,07,21,10,31,18.30
2015,07,21,10,32,18.40
2015,07,21,10,33,18.40
2015,07,21,10,34,18.40
2015,07,21,10,35,18.50
2015,07,21,10,36,18.50
2015,07,21,10,37,18.50
2015,07,21,10,38,18.60
2015,07,21,10,39,18.60
2015,07,21,10,40,18.60
2015,07,21,10,41,18.70
2015,07,21,10,42,18.70
2015,07,21,10,43,18.70
2015,07,21,10,44,18.70
2015,07,21,10,45,18.70
2015,07,21,10,46,18.70
2015,07,21,10,47,18.80
2015,07,21,10,48,18.80
2015,07,21,10,49,18.80
2015,07,21,10,50,18.80
2015,07,21,10,51,18.80
2015,07,21,10,52,18.80
2015,07,21,10,53,18.80
2015,07,21,10,54,18.90
2015,07,21,10,55,19.00
2015,07,21,10,56,19.10
2015,07,21,10,57,19.10
2015,07,21,10,58,19.10
2015,07,21,10,59,19.20
2015,07,21,11,00,19.20
2015,07,21,11,01,19.30
2015,07,21,11,02,19.40
2015,07,21,11,03,19.40
2015,07,21,11,04,19.50
2015,07,21,11,05,19.50
2015,07,21,11,06,19.60
2015,07,21,11,07,19.70
2015,07,21,11,08,19.80
2015,07,21,11,09,19.80
2015,07,21,11,10,19.90
2015,07,21,11,11,19.90
2015,07,21,11,12,19.90
2015,07,21,11,13,19.90
2015,07,21,11,14,19.90
2015,07,21,11,15,20.00
2015,07,21,11,16,20.00
2015,07,21,11,17,20.10
2015,07,21,11,18,20.10
2015,07,21,11,19,20.20
2015,07,21,11,20,20.20
2015,07,21,11,21,20.30
2015,07,21,11,22,20.30
2015,07,21,11,23,20.30
2015,07,21,11,24,20.30
2015,07,21,11,25,20.30
2015,07,21,11,26,20.30
2015,07,21,11,27,20.30
2015,07,21,11,28,20.20
2015,07,21,11,29,20.20
2015,07,21,11,30,20.10
2015,07,21,11,31,20.10
2015,07,21,11,32,20.10
2015,07,21,11,33,20.10
2015,07,21,11,34,20.20
2015,07,21,11,35,20.20
2015,07,21,11,36,20.10
2015,07,21,11,37,20.10
2015,07,21,11,38,20.20
2015,07,21,11,39,20.20
2015,07,21,11,40,20.30
2015,07,21,11,41,20.30
2015,07,21,11,42,20.30
2015,07,21,11,43,20.30
2015,07,21,11,44,20.40
2015,07,21,11,45,20.60
2015,07,21,11,46,20.70
2015,07,21,11,47,20.80
2015,07,21,11,48,20.90
2015,07,21,11,49,21.00
2015,07,21,11,50,21.10
2015,07,21,11,51,21.10
2015,07,21,11,52,21.10
2015,07,21,11,53,21.10
2015,07,21,11,54,21.00
2015,07,21,11,55,21.00
2015,07,21,11,56,21.00
2015,07,21,11,57,21.00
2015,07,21,11,58,21.10
2015,07,21,11,59,21.10
2015,07,21,12,00,21.20
2015,07,21,12,01,21.10
2015,07,21,12,02,21.10
2015,07,21,12,03,21.00
2015,07,21,12,04,21.00
2015,07,21,12,05,20.90
2015,07,21,12,06,20.90
2015,07,21,12,07,20.90
2015,07,21,12,08,21.00
2015,07,21,12,09,21.10
2015,07,21,12,10,21.10
2015,07,21,12,11,21.10
2015,07,21,12,12,21.20
2015,07,21,12,13,21.20
2015,07,21,12,14,21.20
2015,07,21,12,15,21.30
2015,07,21,12,16,21.30
2015,07,21,12,17,21.30
2015,07,21,12,18,21.20
2015,07,21,12,19,21.30
2015,07,21,12,20,21.30
2015,07,21,12,21,21.30
2015,07,21,12,22,21.30
2015,07,21,12,23,21.30
2015,07,21,12,24,21.30
2015,07,21,12,25,21.40
2015,07,21,12,26,21.40
2015,07,21,12,27,21.40
2015,07,21,12,28,21.60
2015,07,21,12,29,21.70
2015,07,21,12,30,21.80
2015,07,21,12,31,21.80
2015,07,21,12,32,21.80
2015,07,21,12,33,21.70
2015,07,21,12,34,21.70
2015,07,21,12,35,21.60
2015,07,21,12,36,21.50
2015,07,21,12,37,21.60
2015,07,21,12,38,21.60
2015,07,21,12,39,21.50
2015,07,21,12,40,21.50
2015,07,21,12,41,21.50
2015,07,21,12,42,21.40
2015,07,21,12,43,21.50
2015,07,21,12,44,21.60
2015,07,21,12,45,21.70
2015,07,21,12,46,21.70
2015,07,21,12,47,21.70
2015,07,21,12,48,21.70
2015,07,21,12,49,21.70
2015,07,21,12,50,21.70
2015,07,21,12,51,21.60
2015,07,21,12,52,21.60
2015,07,21,12,53,21.50
2015,07,21,12,54,21.50
2015,07,21,12,55,21.50
2015,07,21,12,56,21.40
2015,07,21,12,57,21.40
2015,07,21,12,58,21.30
2015,07,21,12,59,21.20
2015,07,21,13,00,21.20
2015,07,21,13,01,21.10
2015,07,21,13,02,21.20
2015,07,21,13,03,21.30
2015,07,21,13,04,21.30
2015,07,21,13,05,21.20
2015,07,21,13,06,21.20
2015,07,21,13,07,21.20
2015,07,21,13,08,21.30
2015,07,21,13,09,21.30
2015,07,21,13,10,21.30
2015,07,21,13,11,21.40
2015,07,21,13,12,21.40
2015,07,21,13,13,21.40
2015,07,21,13,14,21.40
2015,07,21,13,15,21.40
2015,07,21,13,16,21.50
2015,07,21,13,17,21.50
2015,07,21,13,18,21.40
2015,07,21,13,19,21.30
2015,07,21,13,20,21.30
2015,07,21,13,21,21.30
2015,07,21,13,22,21.30
2015,07,21,13,23,21.20
2015,07,21,13,24,21.10
2015,07,21,13,25,21.10
2015,07,21,13,26,21.10
2015,07,21,13,27,21.20
2015,07,21,13,28,21.20
2015,07,21,13,29,21.20
2015,07,21,13,30,21.20
2015,07,21,13,31,21.20
2015,07,21,13,32,21.20
2015,07,21,13,33,21.20
2015,07,21,13,34,21.20
2015,07,21,13,35,21.30
2015,07,21,13,36,21.20
2015,07,21,13,37,21.30
2015,07,21,13,38,21.20
2015,07,21,13,39,21.10
2015,07,21,13,40,21.10
2015,07,21,13,41,21.00
2015,07,21,13,42,21.10
2015,07,21,13,43,21.00
2015,07,21,13,44,21.10
2015,07,21,13,45,21.20
2015,07,21,13,46,21.30
2015,07,21,13,47,21.30
2015,07,21,13,48,21.30
2015,07,21,13,49,21.10
2015,07,21,13,50,21.10
2015,07,21,13,51,21.00
2015,07,21,13,52,21.00
2015,07,21,13,53,21.10
2015,07,21,13,54,21.20
2015,07,21,13,55,21.10
2015,07,21,13,56,21.10
2015,07,21,13,57,21.20
2015,07,21,13,58,21.20
2015,07,21,13,59,21.30
2015,07,21,14,00,21.40
2015,07,21,14,01,21.40
2015,07,21,14,02,21.50
2015,07,21,14,03,21.50
2015,07,21,14,04,21.50
2015,07,21,14,05,21.50
2015,07,21,14,06,21.50
2015,07,21,14,07,21.60
2015,07,21,14,08,21.60
2015,07,21,14,09,21.60
2015,07,21,14,10,21.70
2015,07,21,14,11,21.80
2015,07,21,14,12,21.90
2015,07,21,14,13,21.90
2015,07,21,14,14,21.90
2015,07,21,14,15,21.90
2015,07,21,14,16,21.80
2015,07,21,14,17,21.80
2015,07,21,14,18,21.80
2015,07,21,14,19,21.70
2015,07,21,14,20,21.70
2015,07,21,14,21,21.70
2015,07,21,14,22,21.80
2015,07,21,14,23,21.80
2015,07,21,14,24,21.90
2015,07,21,14,25,22.00
2015,07,21,14,26,22.20
2015,07,21,14,27,22.20
2015,07,21,14,28,22.10
2015,07,21,14,29,22.00
2015,07,21,14,30,21.90
2015,07,21,14,31,21.90
2015,07,21,14,32,21.90
2015,07,21,14,33,22.00
2015,07,21,14,34,22.00
2015,07,21,14,35,22.00
2015,07,21,14,36,22.10
2015,07,21,14,37,22.10
2015,07,21,14,38,22.10
2015,07,21,14,39,22.10
2015,07,21,14,40,22.10
2015,07,21,14,41,22.10
2015,07,21,14,42,22.20
2015,07,21,14,43,22.10
2015,07,21,14,44,22.00
2015,07,21,14,45,22.00
2015,07,21,14,46,21.90
2015,07,21,14,47,22.00
2015,07,21,14,48,22.10
2015,07,21,14,49,22.00
2015,07,21,14,50,21.90
2015,07,21,14,51,21.80
2015,07,21,14,52,21.80
2015,07,21,14,53,21.90
2015,07,21,14,54,21.80
2015,07,21,14,55,21.70
2015,07,21,14,56,21.60
2015,07,21,14,57,21.60
2015,07,21,14,58,21.60
2015,07,21,14,59,21.60
2015,07,21,15,00,21.60
2015,07,21,15,01,21.60
2015,07,21,15,02,21.70
2015,07,21,15,03,21.60
2015,07,21,15,04,21.60
2015,07,21,15,05,21.60
2015,07,21,15,06,21.50
2015,07,21,15,07,21.50
2015,07,21,15,08,21.50
2015,07,21,15,09,21.60
2015,07,21,15,10,21.60
2015,07,21,15,11,21.60
2015,07,21,15,12,21.60
2015,07,21,15,13,21.60
2015,07,21,15,14,21.60
2015,07,21,15,15,21.50
2015,07,21,15,16,21.40
2015,07,21,15,17,21.40
2015,07,21,15,18,21.50
2015,07,21,15,19,21.50
2015,07,21,15,20,21.50
2015,07,21,15,21,21.50
2015,07,21,15,22,21.50
2015,07,21,15,23,21.60
2015,07,21,15,24,21.70
2015,07,21,15,25,21.80
2015,07,21,15,26,21.90
2015,07,21,15,27,21.90
2015,07,21,15,28,21.90
2015,07,21,15,29,21.90
2015,07,21,15,30,21.90
2015,07,21,15,31,22.00
2015,07,21,15,32,22.10
2015,07,21,15,33,22.00
2015,07,21,15,34,21.90
2015,07,21,15,35,21.90
2015,07,21,15,36,21.90
2015,07,21,15,37,21.80
2015,07,21,15,38,21.80
2015,07,21,15,39,21.70
2015,07,21,15,40,21.70
2015,07,21,15,41,21.80
2015,07,21,15,42,22.00
2015,07,21,15,43,22.00
2015,07,21,15,44,22.20
2015,07,21,15,45,22.20
2015,07,21,15,46,22.20
2015,07,21,15,47,22.20
2015,07,21,15,48,22.20
2015,07,21,15,49,22.20
2015,07,21,15,50,22.20
2015,07,21,15,51,22.20
2015,07,21,15,52,22.10
2015,07,21,15,53,22.10
2015,07,21,15,54,22.10
2015,07,21,15,55,22.00
2015,07,21,15,56,22.00
2015,07,21,15,57,22.00
2015,07,21,15,58,22.00
2015,07,21,15,59,22.00
2015,07,21,16,00,22.00
2015,07,21,16,01,22.10
2015,07,21,16,02,22.10
2015,07,21,16,03,22.10
2015,07,21,16,04,22.10
2015,07,21,16,05,22.10
2015,07,21,16,06,22.10
2015,07,21,16,07,22.20
2015,07,21,16,08,22.20
2015,07,21,16,09,22.20
2015,07,21,16,10,22.30
2015,07,21,16,11,22.30
2015,07,21,16,12,22.40
2015,07,21,16,13,22.40
2015,07,21,16,14,22.50
2015,07,21,16,15,22.50
2015,07,21,16,16,22.50
2015,07,21,16,17,22.60
2015,07,21,16,18,22.60
2015,07,21,16,19,22.50
2015,07,21,16,20,22.50
2015,07,21,16,21,22.50
2015,07,21,16,22,22.50
2015,07,21,16,23,22.50
2015,07,21,16,24,22.40
2015,07,21,16,25,22.30
2015,07,21,16,26,22.20
2015,07,21,16,27,22.30
2015,07,21,16,28,22.30
2015,07,21,16,29,22.30
2015,07,21,16,30,22.40
2015,07,21,16,31,22.50
2015,07,21,16,32,22.60
2015,07,21,16,33,22.60
2015,07,21,16,34,22.50
2015,07,21,16,35,22.50
2015,07,21,16,36,22.50
2015,07,21,16,37,22.50
2015,07,21,16,38,22.50
2015,07,21,16,39,22.40
2015,07,21,16,40,22.30
2015,07,21,16,41,22.30
2015,07,21,16,42,22.30
2015,07,21,16,43,22.20
2015,07,21,16,44,22.10
2015,07,21,16,45,22.00
2015,07,21,16,46,22.00
2015,07,21,16,47,22.10
2015,07,21,16,48,22.20
2015,07,21,16,49,22.30
2015,07,21,16,50,22.30
2015,07,21,16,51,22.30
2015,07,21,16,52,22.30
2015,07,21,16,53,22.30
2015,07,21,16,54,22.30
2015,07,21,16,55,22.30
2015,07,21,16,56,22.30
2015,07,21,16,57,22.20
2015,07,21,16,58,22.20
2015,07,21,16,59,22.10
2015,07,21,17,00,22.10
2015,07,21,17,01,22.10
2015,07,21,17,02,22.20
2015,07,21,17,03,22.20
2015,07,21,17,04,22.10
2015,07,21,17,05,22.10
2015,07,21,17,06,22.10
2015,07,21,17,07,22.10
2015,07,21,17,08,22.20
2015,07,21,17,09,22.20
2015,07,21,17,10,22.20
2015,07,21,17,11,22.30
2015,07,21,17,12,22.30
2015,07,21,17,13,22.30
2015,07,21,17,14,22.30
2015,07,21,17,15,22.30
2015,07,21,17,16,22.10
2015,07,21,17,17,22.00
2015,07,21,17,18,21.80
2015,07,21,17,19,21.80